TimeEST,TemperatureF,Dew PointF,Humidity,Sea Level PressureIn,VisibilityMPH,Wind Direction,Wind SpeedMPH,Gust SpeedMPH,PrecipitationIn,Events,Conditions,WindDirDegrees,DateUTC
12:15 AM,33.3,23.2,67,30.12,10.0,WNW,12.7,19.6,N/A,,Overcast,290,2013-11-19 05:15:00
12:35 AM,33.4,23.4,67,30.13,10.0,NW,6.9,-,N/A,,Overcast,310,2013-11-19 05:35:00
12:55 AM,33.4,22.8,65,30.13,10.0,NW,10.4,21.9,N/A,,Overcast,310,2013-11-19 05:55:00
1:15 AM,33.3,22.8,66,30.13,10.0,NW,10.4,18.4,N/A,,Overcast,320,2013-11-19 06:15:00
1:35 AM,33.3,22.8,66,30.14,10.0,NW,10.4,18.4,N/A,,Overcast,320,2013-11-19 06:35:00
1:55 AM,33.1,23.4,67,30.15,10.0,WNW,13.8,19.6,N/A,,Overcast,300,2013-11-19 06:55:00
2:15 AM,33.1,23.5,68,30.16,10.0,WNW,8.1,-,N/A,,Overcast,300,2013-11-19 07:15:00
2:35 AM,33.1,23.5,68,30.17,10.0,WNW,10.4,17.3,N/A,,Overcast,300,2013-11-19 07:35:00
2:55 AM,33.1,23.2,67,30.17,10.0,WNW,8.1,16.1,N/A,,Overcast,300,2013-11-19 07:55:00
3:15 AM,32.9,23.7,69,30.17,10.0,NW,9.2,-,N/A,,Overcast,310,2013-11-19 08:15:00
3:35 AM,32.9,23.4,68,30.18,10.0,NW,6.9,16.1,N/A,,Overcast,310,2013-11-19 08:35:00
3:55 AM,32.9,23.2,67,30.18,10.0,WNW,11.5,-,N/A,,Overcast,290,2013-11-19 08:55:00
4:15 AM,32.7,22.8,67,30.19,10.0,WNW,11.5,-,N/A,,Overcast,300,2013-11-19 09:15:00
4:35 AM,32.7,22.5,66,30.20,10.0,WNW,8.1,17.3,N/A,,Overcast,300,2013-11-19 09:35:00
4:55 AM,32.5,21.9,65,30.20,10.0,NW,12.7,-,N/A,,Overcast,310,2013-11-19 09:55:00
5:15 AM,32.4,21.6,64,30.21,10.0,NNW,6.9,-,N/A,,Overcast,330,2013-11-19 10:15:00
5:35 AM,32.0,21.9,66,30.22,10.0,NNW,10.4,-,N/A,,Overcast,330,2013-11-19 10:35:00
5:55 AM,32.0,21.2,64,30.23,10.0,NW,9.2,-,N/A,,Overcast,320,2013-11-19 10:55:00
6:15 AM,31.8,21.0,64,30.24,10.0,NNW,11.5,17.3,N/A,,Overcast,330,2013-11-19 11:15:00
6:35 AM,31.5,20.3,63,30.25,10.0,NW,10.4,-,N/A,,Mostly Cloudy,310,2013-11-19 11:35:00
6:55 AM,30.6,20.3,66,30.26,10.0,NW,6.9,-,N/A,,Mostly Cloudy,310,2013-11-19 11:55:00
7:15 AM,30.2,20.3,67,30.27,10.0,NW,6.9,-,N/A,,Mostly Cloudy,310,2013-11-19 12:15:00
7:35 AM,30.0,20.3,67,30.28,10.0,NW,4.6,-,N/A,,Mostly Cloudy,320,2013-11-19 12:35:00
7:55 AM,29.8,21.0,70,30.28,10.0,NW,5.8,-,N/A,,Mostly Cloudy,310,2013-11-19 12:55:00
8:15 AM,30.6,20.8,67,30.29,10.0,NW,5.8,-,N/A,,Scattered Clouds,320,2013-11-19 13:15:00
8:35 AM,31.1,20.7,65,30.29,10.0,NW,6.9,-,N/A,,Clear,320,2013-11-19 13:35:00
8:55 AM,32.0,20.8,63,30.31,10.0,NW,4.6,-,N/A,,Clear,320,2013-11-19 13:55:00
9:15 AM,32.4,20.3,61,30.31,10.0,NNW,9.2,-,N/A,,Clear,330,2013-11-19 14:15:00
9:35 AM,32.9,19.8,59,30.31,10.0,NNW,10.4,-,N/A,,Clear,330,2013-11-19 14:35:00
9:55 AM,33.4,19.8,57,30.32,10.0,NNW,9.2,-,N/A,,Clear,330,2013-11-19 14:55:00
10:15 AM,33.6,19.8,57,30.32,10.0,NNW,8.1,17.3,N/A,,Clear,330,2013-11-19 15:15:00
10:35 AM,33.8,19.8,56,30.33,10.0,NNW,9.2,-,N/A,,Clear,330,2013-11-19 15:35:00
10:55 AM,33.8,19.6,56,30.33,10.0,NNE,3.5,9.2,N/A,,Clear,30,2013-11-19 15:55:00
11:15 AM,34.7,20.1,55,30.33,10.0,NNE,5.8,-,N/A,,Clear,20,2013-11-19 16:15:00
11:35 AM,35.2,20.8,56,30.33,10.0,NW,6.9,-,N/A,,Clear,320,2013-11-19 16:35:00
11:55 AM,35.8,19.9,53,30.33,10.0,North,3.5,-,N/A,,Clear,350,2013-11-19 16:55:00
12:15 PM,36.3,19.8,51,30.32,10.0,North,6.9,-,N/A,,Clear,350,2013-11-19 17:15:00
12:35 PM,36.5,20.5,52,30.32,10.0,NW,5.8,-,N/A,,Clear,320,2013-11-19 17:35:00
12:55 PM,36.7,19.6,50,30.32,10.0,North,4.6,-,N/A,,Clear,10,2013-11-19 17:55:00
1:15 PM,37.2,19.8,49,30.32,10.0,NNW,3.5,-,N/A,,Clear,340,2013-11-19 18:15:00
1:35 PM,37.6,19.8,49,30.32,10.0,WSW,3.5,-,N/A,,Clear,240,2013-11-19 18:35:00
1:55 PM,38.5,19.8,47,30.31,10.0,NNW,3.5,-,N/A,,Clear,330,2013-11-19 18:55:00
2:15 PM,37.9,19.2,47,30.31,10.0,Calm,Calm,-,N/A,,Clear,0,2013-11-19 19:15:00
2:35 PM,37.8,19.0,47,30.31,10.0,NNE,5.8,-,N/A,,Clear,20,2013-11-19 19:35:00
2:55 PM,38.5,19.4,46,30.31,10.0,Calm,Calm,-,N/A,,Clear,0,2013-11-19 19:55:00
3:15 PM,38.1,18.9,46,30.31,10.0,NNE,4.6,-,N/A,,Clear,30,2013-11-19 20:15:00
3:35 PM,37.8,18.7,46,30.31,10.0,Calm,Calm,-,N/A,,Clear,0,2013-11-19 20:35:00
3:55 PM,37.8,18.3,46,30.32,10.0,ENE,3.5,-,N/A,,Clear,70,2013-11-19 20:55:00
4:15 PM,37.4,18.9,47,30.32,10.0,Calm,Calm,-,N/A,,Clear,0,2013-11-19 21:15:00
4:35 PM,37.4,19.2,48,30.32,10.0,ENE,4.6,-,N/A,,Clear,70,2013-11-19 21:35:00
4:55 PM,36.5,19.0,49,30.33,10.0,Calm,Calm,-,N/A,,Clear,0,2013-11-19 21:55:00
5:15 PM,35.8,19.2,51,30.34,10.0,Calm,Calm,-,N/A,,Clear,0,2013-11-19 22:15:00
5:35 PM,35.1,19.2,53,30.35,10.0,Calm,Calm,-,N/A,,Clear,0,2013-11-19 22:35:00
5:55 PM,33.6,19.4,56,30.35,10.0,Calm,Calm,-,N/A,,Clear,0,2013-11-19 22:55:00
6:15 PM,31.6,20.7,64,30.35,10.0,Calm,Calm,-,N/A,,Clear,0,2013-11-19 23:15:00
6:35 PM,30.9,21.0,67,30.35,10.0,Calm,Calm,-,N/A,,Clear,0,2013-11-19 23:35:00
6:55 PM,30.9,21.0,67,30.36,10.0,Calm,Calm,-,N/A,,Clear,0,2013-11-19 23:55:00
7:15 PM,29.7,20.8,70,30.36,10.0,Calm,Calm,-,N/A,,Clear,0,2013-11-20 00:15:00
7:35 PM,29.1,21.7,74,30.36,10.0,Calm,Calm,-,N/A,,Clear,0,2013-11-20 00:35:00
7:55 PM,28.4,21.7,76,30.36,10.0,Calm,Calm,-,N/A,,Clear,0,2013-11-20 00:55:00
8:15 PM,27.5,21.2,77,30.36,10.0,Calm,Calm,-,N/A,,Clear,0,2013-11-20 01:15:00
8:35 PM,27.3,21.2,78,30.36,10.0,Calm,Calm,-,N/A,,Clear,0,2013-11-20 01:35:00
8:55 PM,27.3,21.4,78,30.36,7.0,East,4.6,-,N/A,,Clear,100,2013-11-20 01:55:00
9:15 PM,26.2,21.2,81,30.37,10.0,SE,6.9,-,N/A,,Clear,140,2013-11-20 02:15:00
9:35 PM,26.2,21.2,81,30.37,10.0,SE,4.6,-,N/A,,Clear,130,2013-11-20 02:35:00
9:55 PM,25.5,20.8,82,30.37,10.0,ESE,4.6,-,N/A,,Clear,120,2013-11-20 02:55:00
10:15 PM,27.5,21.9,80,30.37,10.0,ESE,4.6,-,N/A,,Clear,120,2013-11-20 03:15:00
10:35 PM,26.8,21.6,81,30.37,10.0,SSE,4.6,-,N/A,,Clear,150,2013-11-20 03:35:00
10:55 PM,27.0,22.1,82,30.37,10.0,SSE,3.5,-,N/A,,Clear,150,2013-11-20 03:55:00
11:15 PM,26.8,22.1,83,30.37,10.0,SE,3.5,-,N/A,,Clear,130,2013-11-20 04:15:00
11:35 PM,26.4,22.1,84,30.37,10.0,East,3.5,-,N/A,,Clear,90,2013-11-20 04:35:00
11:55 PM,26.4,22.6,86,30.38,10.0,Calm,Calm,-,N/A,,Clear,0,2013-11-20 04:55:00